^^
Station Historical Data
Daily Summary for February 17, 2017 Units:  English    Metric   Both
« Previous Day
Next Day »
Daily Weekly Monthly Yearly Custom
  High: Low: Average:
Temperature: 39.6 °F 24.0 °F 30.1 °F
Dew Point: 20.5 °F 16.0 °F 17.8 °F
Humidity: 72% 44% 61%
Wind Speed: 6.0mph 0.0mph 1.6mph
Wind Gust: 15.0mph - -
Wind- - SW
Pressure: 29.92 in 29.80 in -
Precipitation: 0.00 in    
Historical Graphs
 
 
Tabular Data for February 17, 2017
Time Temperature Dew Point Pressure Wind Wind Speed Wind Gust Humidity Rainfall Rate (Hourly) Conditions
00:09 25.4 °F 16.3 °F 29.80 in ESE 2.0 mph 12.0 mph 68% 0.00 in -SN
00:19 25.4 °F 16.0 °F 29.80 in SSW 1.0 mph 12.0 mph 67% 0.00 in -SN
00:29 25.4 °F 16.3 °F 29.80 in SSW 2.0 mph 9.0 mph 68% 0.00 in -SN
00:39 25.3 °F 16.2 °F 29.80 in Calm   9.0 mph 68% 0.00 in -SN
00:49 25.4 °F 16.3 °F 29.81 in WNW 1.0 mph 14.0 mph 68% 0.00 in -SN
00:59 25.3 °F 16.2 °F 29.81 in NE 1.0 mph 12.0 mph 68% 0.00 in -SN
01:09 25.3 °F 16.2 °F 29.82 in ESE 2.0 mph 15.0 mph 68% 0.00 in -SN
01:19 25.2 °F 16.5 °F 29.82 in WSW 1.0 mph 9.0 mph 69% 0.00 in -SN
01:29 25.1 °F 16.4 °F 29.82 in SSW 1.0 mph 9.0 mph 69% 0.00 in -SN
01:39 25.1 °F 16.3 °F 29.82 in SSW 2.0 mph 12.0 mph 69% 0.00 in -SN
01:49 25.0 °F 16.3 °F 29.82 in WSW 2.0 mph 7.0 mph 69% 0.00 in -SN
01:59 25.0 °F 16.3 °F 29.82 in WSW 3.0 mph 12.0 mph 69% 0.00 in -SN
02:09 25.0 °F 16.3 °F 29.82 in West 1.0 mph 12.0 mph 69% 0.00 in -SN
02:19 25.0 °F 16.3 °F 29.82 in SW 2.0 mph 12.0 mph 69% 0.00 in -SN
02:29 24.9 °F 16.5 °F 29.82 in WSW 1.0 mph 6.0 mph 70% 0.00 in -SN
02:39 25.0 °F 16.3 °F 29.82 in SW 1.0 mph 9.0 mph 69% 0.00 in -SN
02:49 25.0 °F 16.3 °F 29.82 in WSW 3.0 mph 12.0 mph 69% 0.00 in -SN
02:59 25.0 °F 16.6 °F 29.82 in SSW 1.0 mph 12.0 mph 70% 0.00 in -SN
03:09 25.0 °F 16.3 °F 29.82 in WSW 1.0 mph 8.0 mph 69% 0.00 in -SN
03:19 25.0 °F 16.6 °F 29.82 in North 2.0 mph 10.0 mph 70% 0.00 in -SN
03:29 25.0 °F 16.6 °F 29.83 in Calm   12.0 mph 70% 0.00 in -SN
03:39 24.9 °F 16.5 °F 29.83 in WSW 1.0 mph 10.0 mph 70% 0.00 in -SN
03:49 24.8 °F 16.4 °F 29.83 in SW 1.0 mph 8.0 mph 70% 0.00 in -SN
03:59 24.8 °F 16.4 °F 29.83 in West 1.0 mph 9.0 mph 70% 0.00 in -SN
04:09 24.7 °F 16.3 °F 29.83 in NNE 2.0 mph 12.0 mph 70% 0.00 in -SN
04:19 24.7 °F 16.3 °F 29.84 in West 2.0 mph 10.0 mph 70% 0.00 in -SN
04:29 24.7 °F 16.3 °F 29.84 in South 2.0 mph 8.0 mph 70% 0.00 in -SN
04:39 24.7 °F 16.3 °F 29.84 in West 1.0 mph 9.0 mph 70% 0.00 in -SN
04:49 24.7 °F 16.3 °F 29.84 in West 1.0 mph 9.0 mph 70% 0.00 in -SN
04:59 24.6 °F 16.2 °F 29.84 in SSW 1.0 mph 8.0 mph 70% 0.00 in -SN
05:09 24.6 °F 16.2 °F 29.84 in WSW 1.0 mph 6.0 mph 70% 0.00 in -SN
05:19 24.5 °F 16.4 °F 29.84 in South 2.0 mph 8.0 mph 71% 0.00 in -SN
05:29 24.4 °F 16.3 °F 29.85 in SW 3.0 mph 7.0 mph 71% 0.00 in -SN
05:39 24.4 °F 16.3 °F 29.85 in West 1.0 mph 10.0 mph 71% 0.00 in -SN
05:49 24.2 °F 16.5 °F 29.86 in WSW 2.0 mph 9.0 mph 72% 0.00 in -SN
05:59 24.1 °F 16.4 °F 29.86 in WSW 2.0 mph 9.0 mph 72% 0.00 in -SN
06:09 24.0 °F 16.3 °F 29.86 in SW 6.0 mph 12.0 mph 72% 0.00 in -SN
06:19 24.1 °F 16.4 °F 29.86 in West 1.0 mph 10.0 mph 72% 0.00 in -SN
06:29 24.1 °F 16.4 °F 29.86 in West 3.0 mph 9.0 mph 72% 0.00 in -SN
06:39 24.1 °F 16.4 °F 29.86 in NW 2.0 mph 10.0 mph 72% 0.00 in -SN
06:49 24.1 °F 16.4 °F 29.86 in SW 3.0 mph 8.0 mph 72% 0.00 in -SN
06:59 24.2 °F 16.5 °F 29.86 in South 2.0 mph 10.0 mph 72% 0.00 in -SN
07:09 24.2 °F 16.1 °F 29.86 in North 3.0 mph 9.0 mph 71% 0.00 in -SN
07:19 24.3 °F 16.2 °F 29.87 in East 3.0 mph 13.0 mph 71% 0.00 in -SN
07:29 24.4 °F 16.3 °F 29.87 in East 2.0 mph 13.0 mph 71% 0.00 in -SN
07:39 24.5 °F 16.4 °F 29.86 in WSW 2.0 mph 12.0 mph 71% 0.00 in -SN
07:49 24.7 °F 16.3 °F 29.86 in NE 3.0 mph 15.0 mph 70% 0.00 in -SN
07:59 25.0 °F 16.2 °F 29.88 in NNE 1.0 mph 12.0 mph 69% 0.00 in -SN
08:09 25.3 °F 16.5 °F 29.88 in NW 2.0 mph 12.0 mph 69% 0.00 in -SN
08:19 25.6 °F 16.5 °F 29.87 in South 1.0 mph 12.0 mph 68% 0.00 in -SN
08:29 26.0 °F 16.5 °F 29.87 in SW 1.0 mph 12.0 mph 67% 0.00 in -SN
08:39 26.3 °F 16.9 °F 29.87 in SSE 2.0 mph 9.0 mph 67% 0.00 in -SN
08:49 26.9 °F 17.0 °F 29.87 in NE 5.0 mph 9.0 mph 66% 0.00 in -SN
08:59 27.5 °F 17.3 °F 29.87 in South 3.0 mph 8.0 mph 65% 0.00 in -SN
09:09 28.1 °F 17.1 °F 29.87 in WNW 2.0 mph 9.0 mph 63% 0.00 in -SN
09:19 28.6 °F 17.6 °F 29.87 in NNW 1.0 mph 8.0 mph 63% 0.00 in -SN
09:29 29.1 °F 17.7 °F 29.88 in NNW 3.0 mph 7.0 mph 62% 0.00 in -SN
09:39 29.5 °F 17.7 °F 29.88 in NNW 3.0 mph 8.0 mph 61% 0.00 in -SN
09:49 29.9 °F 18.1 °F 29.88 in NW 1.0 mph 8.0 mph 61% 0.00 in -SN
09:59 30.6 °F 18.4 °F 29.89 in WNW 3.0 mph 8.0 mph 60% 0.00 in -SN
10:09 30.7 °F 18.1 °F 29.89 in NNW 2.0 mph 8.0 mph 59% 0.00 in -SN
10:19 31.2 °F 18.1 °F 29.89 in NNE 1.0 mph 6.0 mph 58% 0.00 in -SN
10:29 31.9 °F 18.7 °F 29.89 in NNW 1.0 mph 8.0 mph 58% 0.00 in -SN
10:39 32.1 °F 18.6 °F 29.88 in NNW 5.0 mph 8.0 mph 57% 0.00 in -SN
10:49 33.0 °F 19.0 °F 29.88 in Calm   7.0 mph 56% 0.00 in -SN
10:59 33.1 °F 18.7 °F 29.88 in NNW 3.0 mph 9.0 mph 55% 0.00 in -SN
11:09 33.0 °F 18.6 °F 29.88 in North 3.0 mph 9.0 mph 55% 0.00 in -SN
11:29 33.7 °F 18.8 °F 29.87 in WNW 1.0 mph 12.0 mph 54% 0.00 in -SN
11:39 34.1 °F 19.2 °F 29.87 in West 3.0 mph 10.0 mph 54% 0.00 in -SN
11:49 33.8 °F 18.5 °F 29.86 in West 3.0 mph 14.0 mph 53% 0.00 in -SN
11:59 34.3 °F 18.0 °F 29.86 in WNW 1.0 mph 10.0 mph 51% 0.00 in -SN
12:09 34.8 °F 19.4 °F 29.86 in West 1.0 mph 12.0 mph 53% 0.00 in -SN
12:19 35.7 °F 19.3 °F 29.86 in SW 1.0 mph 8.0 mph 51% 0.00 in -SN
12:29 36.1 °F 18.7 °F 29.85 in WNW 2.0 mph 9.0 mph 49% 0.00 in -SN
12:39 35.7 °F 18.9 °F 29.85 in East 2.0 mph 12.0 mph 50% 0.00 in -SN
12:49 36.0 °F 19.1 °F 29.85 in NW 1.0 mph 9.0 mph 50% 0.00 in -SN
12:59 36.2 °F 18.8 °F 29.85 in North 2.0 mph 9.0 mph 49% 0.00 in -SN
13:09 36.3 °F 18.5 °F 29.84 in NNE 1.0 mph 7.0 mph 48% 0.00 in -SN
13:19 36.7 °F 19.3 °F 29.84 in WNW 1.0 mph 8.0 mph 49% 0.00 in -SN
13:29 36.9 °F 19.0 °F 29.84 in WNW 2.0 mph 7.0 mph 48% 0.00 in -SN
13:39 36.8 °F 19.0 °F 29.84 in NNW 2.0 mph 9.0 mph 48% 0.00 in -SN
13:49 37.2 °F 19.3 °F 29.83 in NNW 2.0 mph 7.0 mph 48% 0.00 in -SN
13:59 37.2 °F 18.8 °F 29.83 in NW 2.0 mph 7.0 mph 47% 0.00 in -SN
14:09 37.6 °F 19.2 °F 29.83 in NNW 1.0 mph 7.0 mph 47% 0.00 in -SN
14:19 37.9 °F 19.4 °F 29.83 in West 3.0 mph 8.0 mph 47% 0.00 in -SN
14:29 38.1 °F 19.1 °F 29.83 in NNW 2.0 mph 7.0 mph 46% 0.00 in -SN
14:39 38.9 °F 20.3 °F 29.83 in NW 1.0 mph 8.0 mph 47% 0.00 in -SN
14:49 38.6 °F 19.6 °F 29.83 in NW 3.0 mph 13.0 mph 46% 0.00 in -SN
14:59 38.6 °F 19.1 °F 29.83 in NE 2.0 mph 12.0 mph 45% 0.00 in -SN
15:09 38.9 °F 19.3 °F 29.83 in WSW 2.0 mph 10.0 mph 45% 0.00 in -SN
15:20 38.9 °F 19.9 °F 29.84 in West 2.0 mph 6.0 mph 46% 0.00 in CLR
15:49 39.3 °F 19.7 °F 29.83 in ENE 2.0 mph 5.0 mph 45% 0.00 in -SN
16:01 39.6 °F 19.5 °F 29.83 in North 1.0 mph 5.0 mph 44% 0.00 in -SN
16:10 39.5 °F 19.9 °F 29.83 in Calm   4.0 mph 45% 0.00 in CLR
16:50 39.4 °F 19.8 °F 29.84 in SSE 1.0 mph 7.0 mph 45% 0.00 in -SN
17:40 37.2 °F 19.3 °F 29.86 in Calm   7.0 mph 48% 0.00 in -SN
17:50 36.8 °F 19.4 °F 29.86 in Calm   5.0 mph 49% 0.00 in -SN
18:00 36.5 °F 19.1 °F 29.86 in Calm   5.0 mph 49% 0.00 in -SN
21:29 34.8 °F 19.8 °F 29.92 in SSW 1.0 mph 2.0 mph 54% 0.00 in
21:40 34.7 °F 20.2 °F 29.92 in Calm   2.0 mph 55% 0.00 in -SN
21:50 34.6 °F 20.5 °F 29.92 in Calm   2.0 mph 56% 0.00 in -SN
22:00 34.7 °F 20.2 °F 29.92 in Calm   5.0 mph 55% 0.00 in -SN
22:10 34.6 °F 20.1 °F 29.92 in Calm   1.0 mph 55% 0.00 in -SN
22:20 34.4 °F 19.9 °F 29.92 in Calm   1.0 mph 55% 0.00 in -SN
22:30 34.4 °F 20.3 °F 29.92 in SW 1.0 mph 3.0 mph 56% 0.00 in -SN
22:40 34.4 °F 19.9 °F 29.92 in SW 1.0 mph 3.0 mph 55% 0.00 in -SN
22:50 34.2 °F 19.7 °F 29.92 in Calm   3.0 mph 55% 0.00 in -SN
23:00 34.0 °F 19.5 °F 29.92 in Calm   3.0 mph 55% 0.00 in -SN
23:10 33.7 °F 18.8 °F 29.92 in Calm   4.0 mph 54% 0.00 in -SN
23:20 33.4 °F 19.0 °F 29.92 in Calm   2.0 mph 55% 0.00 in -SN
23:30 33.2 °F 18.8 °F 29.92 in Calm   3.0 mph 55% 0.00 in -SN
23:40 33.2 °F 18.3 °F 29.92 in Calm   3.0 mph 54% 0.00 in -SN
23:50 33.1 °F 18.2 °F 29.91 in Calm   1.0 mph 54% 0.00 in -SN
TarryTown NY Weather
Compliments of Weather Underground - 1.5 mb